GW5072 Weather Reports


time (UTC)temp
C
wind
direction
speed
KPH
gust
KPH
rain 1hr
cm
rain 24hr
cm
rain mn
cm
humidity
%
barometer
mb
20260507213511 24 7 0.0 4.8 0.00 0.00 0.00 69 1014.5
20260507213022 24 341 0.0 4.8 0.00 0.00 0.00 70 1014.3
20260507212511 24 70 0.0 3.2 0.00 0.00 0.00 72 1014.3
20260507212012 24 102 0.0 4.8 0.00 0.00 0.00 71 1014.3
20260507211519 24 110 0.0 4.8 0.00 0.00 0.00 70 1014.4
20260507211006 24 327 0.0 4.8 0.00 0.00 0.00 69 1014.5
20260507210502 24 319 0.0 4.8 0.00 0.00 0.00 69 1014.6
20260507210018 25 6 0.0 4.8 0.00 0.00 0.00 70 1014.7
20260507205508 25 277 0.0 4.8 0.00 0.00 0.00 69 1014.7
20260507205008 25 65 0.0 8.0 0.00 0.00 0.00 69 1014.7
20260507204514 25 302 0.0 8.0 0.00 0.00 0.00 69 1014.9
20260507204006 25 128 0.0 3.2 0.00 0.00 0.00 70 1014.7
20260507203512 24 30 0.0 4.8 0.00 0.00 0.00 72 1014.9
20260507203013 24 288 0.0 4.8 0.00 0.00 0.00 68 1014.9
20260507202504 25 340 0.0 4.8 0.00 0.00 0.00 68 1014.9
20260507202006 25 330 0.0 4.8 0.00 0.00 0.00 70 1015.0
20260507201507 25 68 0.0 3.2 0.00 0.00 0.00 68 1015.0
20260507201008 25 99 1.6 4.8 0.00 0.00 0.00 67 1015.1
20260507200504 25 265 1.6 4.8 0.00 0.00 0.00 70 1014.9
20260507200010 25 238 0.0 6.4 0.00 0.00 0.00 70 1015.1
20260507195507 24 13 0.0 6.4 0.00 0.00 0.00 69 1015.1
20260507195003 25 293 0.0 3.2 0.00 0.00 0.00 68 1015.2
20260507194506 25 6 1.6 6.4 0.00 0.00 0.00 67 1015.4
20260507194006 25 25 1.6 6.4 0.00 0.00 0.00 68 1015.5
20260507193504 25 96 1.6 4.8 0.00 0.00 0.00 68 1015.3
20260507193024 25 51 0.0 4.8 0.00 0.00 0.00 69 1015.2
20260507192503 25 22 1.6 4.8 0.00 0.00 0.00 69 1015.2
20260507192003 24 354 0.0 8.0 0.00 0.00 0.00 70 1015.2
20260507191520 24 288 1.6 8.0 0.00 0.00 0.00 68 1015.2
20260507191003 24 65 1.6 4.8 0.00 0.00 0.00 69 1015.6
20260507190509 24 58 1.6 3.2 0.00 0.00 0.00 70 1015.9
20260507190019 23 213 0.0 3.2 0.00 0.00 0.00 71 1016.0
20260507185503 23 10 0.0 6.4 0.00 0.00 0.00 72 1016.1
20260507185007 23 17 1.6 8.0 0.00 0.00 0.00 73 1016.2
20260507184515 23 284 1.6 8.0 0.00 0.00 0.00 72 1016.3
20260507184004 23 345 1.6 4.8 0.00 0.08 0.00 71 1016.1
20260507183508 23 354 1.6 4.8 0.00 0.10 0.00 72 1016.1
20260507183014 22 298 1.6 6.4 0.00 0.10 0.00 75 1016.3
20260507182508 22 31 1.6 6.4 0.00 0.10 0.00 74 1016.3
20260507182011 22 237 1.6 8.0 0.00 0.10 0.00 74 1016.2
20260507181509 22 18 1.6 8.0 0.00 0.10 0.00 73 1016.4
20260507181011 22 310 1.6 4.8 0.00 0.10 0.00 71 1016.4
20260507180508 22 309 0.0 6.4 0.00 0.10 0.00 75 1016.5
20260507180006 22 325 1.6 8.0 0.00 0.10 0.00 74 1016.7
20260507175508 21 32 1.6 8.0 0.00 0.10 0.00 75 1016.7
20260507175006 21 323 1.6 6.4 0.00 0.10 0.00 76 1016.7
20260507174527 21 13 1.6 6.4 0.00 0.10 0.00 76 1016.7
20260507174007 20 43 0.0 3.2 0.00 0.10 0.00 77 1017.0
20260507173506 20 252 0.0 4.8 0.00 0.10 0.00 77 1017.1
20260507173038 20 335 1.6 9.7 0.00 0.10 0.00 78 1017.3
20260507172506 20 11 0.0 9.7 0.00 0.10 0.00 78 1017.3
20260507172003 20 335 0.0 6.4 0.00 0.10 0.00 78 1017.3
20260507171521 20 356 1.6 6.4 0.00 0.10 0.00 77 1017.4
20260507171007 20 311 1.6 4.8 0.00 0.10 0.00 77 1017.5
20260507170510 20 210 0.0 4.8 0.00 0.10 0.00 78 1017.2
20260507170023 20 241 1.6 4.8 0.00 0.10 0.00 77 1017.1
20260507165503 20 276 0.0 4.8 0.00 0.10 0.00 79 1017.1
20260507165011 20 75 0.0 4.8 0.00 0.10 0.00 79 1017.1
20260507164516 20 82 0.0 3.2 0.00 0.10 0.00 80 1017.1
20260507164012 20 274 0.0 4.8 0.00 0.10 0.00 79 1017.2
20260507163508 20 2 1.6 4.8 0.00 0.10 0.00 79 1017.1
20260507163013 19 282 0.0 4.8 0.00 0.10 0.00 81 1016.9
20260507162508 19 278 0.0 4.8 0.00 0.10 0.00 80 1016.8
20260507162007 18 77 1.6 4.8 0.00 0.10 0.00 80 1016.7
20260507161520 18 76 0.0 4.8 0.00 0.10 0.00 80 1016.7
20260507161006 18 202 0.0 4.8 0.00 0.10 0.00 81 1016.7
20260507160506 18 221 1.6 4.8 0.00 0.10 0.00 81 1016.6
20260507160028 18 65 0.0 1.6 0.00 0.10 0.00 82 1016.5
20260507155508 18 293 0.0 1.6 0.00 0.10 0.00 84 1016.4
20260507155004 17 89 0.0 3.2 0.00 0.10 0.00 84 1016.3
20260507154529 17 229 0.0 4.8 0.00 0.10 0.00 84 1016.3
20260507154007 17 51 3.2 4.8 0.00 0.10 0.00 83 1016.6
20260507153502 17 98 0.0 4.8 0.00 0.10 0.00 84 1016.6
20260507153024 17 276 0.0 4.8 0.00 0.10 0.00 85 1016.7
20260507152508 17 97 0.0 8.0 0.00 0.10 0.00 85 1016.9
20260507152010 17 266 0.0 8.0 0.00 0.10 0.00 85 1016.9
20260507151519 17 340 0.0 4.8 0.00 0.10 0.00 85 1016.7
20260507151003 17 30 0.0 6.4 0.00 0.10 0.00 86 1016.7
20260507150511 16 318 0.0 8.0 0.00 0.10 0.00 86 1016.6
20260507150021 16 32 1.6 8.0 0.00 0.10 0.00 86 1016.3
20260507145503 16 341 0.0 6.4 0.00 0.10 0.00 86 1016.5
20260507145008 16 348 0.0 6.4 0.00 0.10 0.00 86 1016.6
20260507144519 16 323 0.0 12.9 0.00 0.10 0.00 86 1016.7
20260507144010 16 95 0.0 12.9 0.00 0.10 0.00 86 1016.6
20260507143510 16 33 0.0 9.7 0.00 0.10 0.00 88 1016.7
20260507143017 16 347 0.0 4.8 0.00 0.10 0.00 88 1016.7
20260507142507 16 9 0.0 12.9 0.00 0.10 0.00 88 1016.8
20260507142010 16 41 0.0 12.9 0.00 0.10 0.00 89 1016.6
20260507141527 16 8 1.6 9.7 0.00 0.10 0.00 89 1016.5
20260507141007 16 348 1.6 8.0 0.00 0.10 0.00 89 1016.6
20260507140504 16 328 0.0 8.0 0.00 0.10 0.00 89 1016.7
20260507140027 16 331 0.0 6.4 0.00 0.10 0.00 90 1016.7
20260507135507 16 7 0.0 6.4 0.00 0.10 0.00 90 1016.7
20260507135006 16 335 0.0 6.4 0.00 0.10 0.00 90 1016.7
20260507134530 16 301 1.6 6.4 0.00 0.10 0.00 89 1016.7
20260507134010 16 341 0.0 1.6 0.00 0.10 0.00 89 1017.0
20260507133509 16 7 0.0 3.2 0.00 0.10 0.00 90 1016.9
20260507133026 16 272 0.0 4.8 0.00 0.10 0.00 89 1017.0
20260507132506 16 105 0.0 4.8 0.00 0.10 0.00 90 1016.7
20260507132008 16 338 0.0 4.8 0.00 0.10 0.00 90 1016.7
20260507131524 16 49 0.0 1.6 0.00 0.10 0.00 89 1016.7
20260507131009 16 219 0.0 4.8 0.00 0.10 0.00 90 1016.9
20260507130513 16 311 0.0 6.4 0.00 0.10 0.00 89 1017.0
20260507130023 16 335 1.6 6.4 0.00 0.10 0.00 89 1016.8
20260507125511 16 357 0.0 4.8 0.00 0.10 0.00 89 1016.7
20260507125008 16 312 0.0 4.8 0.00 0.10 0.00 89 1016.8
20260507124522 16 333 1.6 4.8 0.00 0.10 0.00 89 1016.9
20260507124011 16 345 0.0 4.8 0.00 0.10 0.00 90 1016.7
20260507123509 16 347 0.0 6.4 0.00 0.10 0.00 90 1016.8
20260507123029 16 342 0.0 6.4 0.00 0.10 0.00 90 1016.4
20260507122509 16 309 1.6 6.4 0.00 0.10 0.00 90 1016.4
20260507122011 16 349 0.0 8.0 0.00 0.10 0.00 90 1016.0
20260507121516 16 314 0.0 8.0 0.00 0.10 0.00 90 1015.9
20260507121004 16 357 0.0 6.4 0.00 0.10 0.00 90 1015.4
20260507120508 16 1 0.0 6.4 0.00 0.10 0.00 90 1015.4
20260507120011 16 317 0.0 3.2 0.00 0.10 0.00 89 1015.5
20260507115503 16 282 0.0 3.2 0.00 0.10 0.00 89 1015.4
20260507115008 16 348 0.0 6.4 0.00 0.10 0.00 89 1015.3
20260507114511 16 315 0.0 6.4 0.00 0.10 0.00 89 1015.1
20260507114008 17 13 0.0 1.6 0.00 0.10 0.00 89 1015.4
20260507113504 17 323 0.0 6.4 0.00 0.10 0.00 89 1015.4
20260507113012 17 124 1.6 9.7 0.00 0.10 0.00 89 1015.4
20260507112511 17 285 1.6 9.7 0.00 0.10 0.00 89 1015.4
20260507112004 17 327 0.0 6.4 0.00 0.10 0.00 89 1015.0
20260507111504 17 360 0.0 6.4 0.00 0.10 0.00 89 1015.1
20260507111008 17 343 1.6 6.4 0.00 0.10 0.00 89 1015.1
20260507110508 17 319 0.0 4.8 0.00 0.10 0.00 89 1014.7
20260507110024 17 322 0.0 4.8 0.00 0.10 0.00 90 1014.9
20260507105506 17 345 0.0 3.2 0.00 0.10 0.00 90 1014.7
20260507105003 17 350 0.0 3.2 0.00 0.10 0.00 90 1014.8
20260507104521 17 338 0.0 0.0 0.00 0.10 0.00 90 1014.6
20260507104004 17 345 0.0 0.0 0.00 0.10 0.00 91 1014.4
20260507103508 17 358 0.0 0.0 0.00 0.10 0.00 90 1014.4
20260507103019 17 345 0.0 0.0 0.00 0.10 0.00 91 1014.6
20260507102503 17 315 0.0 0.0 0.00 0.10 0.00 91 1014.4
20260507102008 17 238 0.0 0.0 0.00 0.10 0.00 91 1014.4
20260507101514 17 236 0.0 0.0 0.00 0.10 0.00 91 1014.2
20260507101004 17 236 0.0 0.0 0.00 0.10 0.00 91 1014.0
20260507100509 17 236 0.0 0.0 0.00 0.10 0.00 90 1014.3
20260507100018 17 236 0.0 1.6 0.00 0.10 0.00 90 1014.2
20260507095508 17 84 0.0 1.6 0.00 0.10 0.00 90 1013.9
20260507095008 17 216 0.0 0.0 0.00 0.10 0.00 90 1014.0
20260507094509 17 215 0.0 1.6 0.00 0.10 0.00 90 1013.7
20260507094010 17 215 0.0 3.2 0.00 0.10 0.00 90 1013.9
20260507093505 17 86 0.0 3.2 0.00 0.10 0.00 90 1013.7
20260507093008 17 219 0.0 1.6 0.00 0.10 0.00 90 1013.4
20260507092507 17 80 0.0 1.6 0.00 0.10 0.00 90 1013.5
20260507092008 17 79 0.0 1.6 0.00 0.10 0.00 90 1013.7
20260507091506 17 98 0.0 1.6 0.00 0.10 0.00 91 1013.4
20260507091003 17 341 0.0 3.2 0.00 0.10 0.00 90 1013.6
20260507090503 17 252 0.0 3.2 0.00 0.10 0.00 90 1013.6
20260507090010 17 217 0.0 3.2 0.00 0.10 0.00 90 1013.6
20260507085503 17 349 0.0 3.2 0.00 0.10 0.00 90 1013.6
20260507085004 17 349 0.0 3.2 0.00 0.10 0.00 90 1013.8
20260507084505 17 321 0.0 1.6 0.00 0.10 0.00 90 1013.8
20260507084004 17 37 0.0 1.6 0.00 0.10 0.00 90 1013.6
20260507083501 17 37 0.0 1.6 0.00 0.10 0.00 90 1013.7
20260507083003 17 206 0.0 0.0 0.00 0.10 0.00 90 1013.3
20260507082503 17 207 0.0 1.6 0.00 0.10 0.00 90 1013.6
20260507082002 17 23 0.0 1.6 0.00 0.10 0.00 90 1013.9
20260507081518 17 210 0.0 1.6 0.00 0.10 0.00 90 1013.4
20260507081002 17 297 0.0 8.0 0.00 0.10 0.00 89 1013.5
20260507080506 17 341 1.6 8.0 0.00 0.10 0.00 89 1013.7
20260507080005 17 330 0.0 6.4 0.00 0.10 0.00 89 1014.1
20260507075503 17 323 1.6 6.4 0.00 0.10 0.00 89 1013.7
20260507075004 17 358 0.0 6.4 0.00 0.10 0.00 89 1013.7
20260507074507 17 310 0.0 9.7 0.00 0.10 0.00 89 1013.6
20260507074002 17 65 0.0 9.7 0.00 0.10 0.00 89 1014.1
20260507073506 17 348 0.0 4.8 0.00 0.10 0.00 88 1014.0
20260507073008 17 354 0.0 4.8 0.00 0.10 0.00 88 1014.3
20260507072504 17 353 0.0 3.2 0.00 0.10 0.00 88 1013.8
20260507072001 17 327 0.0 6.4 0.00 0.10 0.00 88 1014.0
20260507071503 17 329 0.0 6.4 0.00 0.10 0.00 88 1013.8
20260507071005 17 338 0.0 4.8 0.00 0.10 0.00 88 1013.8
20260507070503 17 13 0.0 3.2 0.00 0.10 0.00 88 1014.1
20260507070010 17 325 0.0 6.4 0.00 0.10 0.00 88 1014.4
20260507065502 17 22 0.0 6.4 0.00 0.10 0.00 87 1014.3
20260507065005 17 307 0.0 6.4 0.00 0.10 0.00 88 1014.5
20260507064508 17 24 0.0 6.4 0.00 0.10 0.00 87 1014.2
20260507064003 17 321 0.0 4.8 0.00 0.10 0.00 87 1014.2
20260507063504 17 335 0.0 4.8 0.00 0.10 0.00 87 1014.2
20260507063007 17 321 0.0 9.7 0.00 0.10 0.00 87 1014.3
20260507062504 17 323 0.0 9.7 0.00 0.10 0.00 87 1014.5
20260507062004 17 311 0.0 3.2 0.00 0.10 0.00 87 1014.0
20260507061510 17 18 0.0 6.4 0.00 0.10 0.00 87 1014.1
20260507061004 17 333 0.0 8.0 0.00 0.10 0.00 86 1014.4
20260507060503 17 321 1.6 8.0 0.00 0.10 0.00 86 1014.4
20260507060012 17 316 0.0 9.7 0.00 0.10 0.00 87 1014.0
20260507055502 17 310 1.6 9.7 0.00 0.10 0.00 86 1013.7
20260507055005 17 294 1.6 9.7 0.00 0.10 0.00 86 1013.8
20260507054511 18 327 0.0 9.7 0.00 0.10 0.00 86 1013.9
20260507054003 18 349 1.6 9.7 0.00 0.10 0.00 86 1014.1
20260507053503 18 326 0.0 8.0 0.00 0.10 0.00 86 1014.1
20260507053009 18 43 0.0 4.8 0.00 0.10 0.00 86 1014.0
20260507052502 18 311 0.0 4.8 0.00 0.10 0.00 86 1014.1
20260507052006 18 302 0.0 8.0 0.00 0.10 0.00 85 1014.0
20260507051507 18 278 0.0 8.0 0.00 0.10 0.00 85 1014.0
20260507051004 18 307 0.0 6.4 0.00 0.10 0.00 85 1013.8
20260507050506 18 272 0.0 4.8 0.00 0.10 0.00 85 1014.0
20260507050011 18 203 0.0 4.8 0.00 0.10 0.00 85 1013.9
20260507045504 18 315 0.0 9.7 0.00 0.10 0.10 85 1013.8
20260507045004 18 10 0.0 9.7 0.00 0.10 0.10 85 1013.7
20260507044530 18 334 0.0 8.0 0.00 0.10 0.10 86 1013.8
20260507044003 18 328 1.6 8.0 0.00 0.10 0.10 85 1013.8
20260507043503 18 300 0.0 6.4 0.00 0.10 0.10 85 1013.8
20260507043015 18 326 0.0 6.4 0.00 0.10 0.10 85 1013.7
20260507042505 18 345 0.0 8.0 0.00 0.10 0.10 86 1013.7
20260507042005 18 348 0.0 9.7 0.00 0.10 0.10 85 1013.8
20260507041515 18 338 0.0 9.7 0.00 0.10 0.10 85 1013.7
20260507041004 18 329 1.6 9.7 0.00 0.10 0.10 85 1013.6
20260507040505 19 331 1.6 6.4 0.00 0.10 0.10 85 1013.7
20260507040014 19 265 0.0 4.8 0.00 0.10 0.10 85 1013.9
20260507035504 19 283 0.0 6.4 0.00 0.10 0.10 85 1013.8
20260507035002 19 318 0.0 6.4 0.00 0.10 0.10 85 1013.7
20260507034513 19 327 1.6 6.4 0.00 0.10 0.10 84 1013.8
20260507034007 19 326 0.0 4.8 0.00 0.10 0.10 85 1013.9
20260507033503 19 322 0.0 6.4 0.00 0.10 0.10 85 1013.8
20260507033010 19 314 1.6 6.4 0.00 0.10 0.10 84 1013.9
20260507032504 19 335 1.6 6.4 0.00 0.10 0.10 84 1013.6
20260507032008 20 323 0.0 4.8 0.00 0.10 0.10 85 1013.4
20260507031516 20 326 0.0 3.2 0.00 0.10 0.10 85 1013.4
20260507031007 20 334 0.0 3.2 0.00 0.10 0.10 85 1013.3
20260507030506 20 323 0.0 6.4 0.00 0.10 0.10 85 1013.1
20260507030016 20 324 0.0 14.5 0.00 0.10 0.10 85 1013.0
20260507025506 20 346 1.6 14.5 0.00 0.10 0.10 84 1013.0
20260507025003 20 32 0.0 11.3 0.00 0.10 0.10 84 1012.6
20260507024519 20 332 1.6 11.3 0.00 0.10 0.10 84 1012.4
20260507024003 20 288 0.0 8.0 0.00 0.10 0.10 85 1012.5
20260507023504 20 314 0.0 9.7 0.00 0.10 0.10 85 1012.3
20260507023020 20 323 0.0 9.7 0.00 0.10 0.10 84 1012.2
20260507022504 20 17 0.0 11.3 0.00 0.10 0.10 85 1012.2
20260507022009 20 347 0.0 11.3 0.00 0.10 0.10 84 1012.0
20260507021522 20 319 1.6 8.0 0.00 0.10 0.10 85 1011.9
20260507021009 20 309 0.0 8.0 0.00 0.10 0.10 85 1011.7
20260507020508 20 301 0.0 6.4 0.00 0.10 0.10 85 1011.8
20260507020024 20 20 0.0 6.4 0.00 0.10 0.10 85 1011.7
20260507015506 20 322 0.0 4.8 0.00 0.10 0.10 85 1011.5
20260507015003 20 302 0.0 4.8 0.00 0.10 0.10 85 1011.5
20260507014515 20 316 0.0 4.8 0.00 0.10 0.10 85 1011.5
20260507014007 20 359 0.0 4.8 0.00 0.10 0.10 85 1011.4
20260507013506 20 317 0.0 4.8 0.00 0.10 0.10 84 1011.2
20260507013020 21 309 0.0 8.0 0.00 0.10 0.10 84 1011.2
20260507012508 21 316 0.0 8.0 0.00 0.10 0.10 84 1011.2
20260507012006 21 347 0.0 6.4 0.00 0.10 0.10 84 1011.1
20260507011519 21 338 1.6 6.4 0.00 0.10 0.10 84 1010.9
20260507011007 21 330 1.6 9.7 0.00 0.10 0.10 83 1010.8
20260507010507 21 316 1.6 9.7 0.00 0.10 0.10 83 1010.9
20260507010026 21 323 1.6 9.7 0.00 0.10 0.10 83 1011.0
20260507005508 21 20 3.2 11.3 0.00 0.10 0.10 83 1010.9
20260507005011 21 326 1.6 11.3 0.00 0.10 0.10 83 1010.7
20260507004521 21 337 3.2 9.7 0.00 0.10 0.10 83 1010.7
20260507004008 21 354 4.8 9.7 0.00 0.10 0.10 83 1010.5
20260507003508 22 319 1.6 9.7 0.00 0.10 0.10 83 1010.6
20260507003028 22 297 3.2 9.7 0.00 0.10 0.10 83 1010.4
20260507002505 22 321 1.6 9.7 0.00 0.10 0.10 83 1010.3
20260507002011 22 340 0.0 11.3 0.00 0.10 0.10 84 1010.2
20260507001534 22 319 1.6 11.3 0.00 0.10 0.10 83 1010.1
20260507001003 22 23 3.2 9.7 0.00 0.10 0.10 83 1010.1
20260507000503 22 359 1.6 9.7 0.00 0.10 0.10 83 1010.1
20260507000020 23 2 1.6 9.7 0.00 0.10 0.10 83 1010.1
20260506235504 23 344 1.6 8.0 0.00 0.10 0.10 84 1009.9
20260506235002 23 323 1.6 11.3 0.00 0.10 0.10 84 1010.0
20260506234516 23 328 3.2 11.3 0.00 0.10 0.10 84 1009.9
20260506234004 23 319 1.6 12.9 0.00 0.10 0.10 84 1010.0
20260506233507 23 288 1.6 12.9 0.00 0.10 0.10 84 1009.9
20260506233016 23 338 1.6 11.3 0.00 0.10 0.10 84 1009.8
20260506232504 24 348 4.8 11.3 0.00 0.10 0.10 83 1009.6
20260506232005 25 326 4.8 11.3 0.00 0.10 0.10 83 1009.7
20260506231513 25 316 1.6 9.7 0.00 0.10 0.10 82 1009.7
20260506231003 27 293 0.0 4.8 0.00 0.10 0.10 83 1009.4
20260506230505 27 198 0.0 0.0 0.00 0.10 0.10 87 1009.1
20260506230010 27 198 0.0 0.0 0.00 0.10 0.10 87 1009.2
20260506225507 27 198 0.0 0.0 0.00 0.10 0.10 87 1009.0
20260506225004 27 198 0.0 0.0 0.00 0.10 0.10 86 1009.1
20260506224503 27 198 0.0 0.0 0.00 0.10 0.10 86 1009.1
20260506224005 28 198 0.0 0.0 0.00 0.10 0.10 86 1009.1
20260506223502 28 198 0.0 0.0 0.00 0.10 0.10 84 1008.9
20260506223006 28 198 0.0 0.0 0.00 0.10 0.10 83 1008.9
20260506222506 28 198 0.0 0.0 0.00 0.10 0.10 82 1008.9
20260506222008 28 198 0.0 0.0 0.00 0.10 0.10 82 1008.9
20260506221521 28 198 0.0 0.0 0.00 0.10 0.10 82 1008.8
20260506221007 28 198 0.0 0.0 0.00 0.10 0.10 81 1008.8
20260506220503 28 198 0.0 0.0 0.00 0.10 0.10 80 1008.8
20260506220021 28 198 0.0 0.0 0.00 0.10 0.10 80 1008.9
20260506215504 28 198 0.0 0.0 0.00 0.10 0.10 80 1008.8
20260506215007 28 198 0.0 0.0 0.00 0.10 0.10 81 1008.8
20260506214519 28 198 0.0 0.0 0.00 0.10 0.10 82 1008.9
20260506214008 28 198 0.0 0.0 0.00 0.10 0.10 83 1009.0